{"data":{"norad_id":58450,"epoch":"2026-09-19T16:27:03.458880Z","epoch_age_seconds":217189,"freshness":"STALE","line1":"1 58450U 23183P   26262.68545670 -.00000165  00000+0  35372-5 0  9995","line2":"2 58450  43.0029  26.0182 0001509 249.8908 110.1782 15.27579377156405","mean_motion":15.27579377,"eccentricity":0.0001509,"inclination_deg":43.0029,"raan_deg":26.0182,"arg_perigee_deg":249.8908,"mean_anomaly_deg":110.1782,"bstar":3.5372e-6,"rev_number":15640,"period_min":94.26678715891,"perigee_km":482.01560826302,"apogee_km":484.08631478981,"semimajor_km":6861.1879615264,"source":"CELESTRAK","updated_at":"2026-09-21T09:00:33.878115Z"}}